This demonstration page uses our WeatherBlox Daily Observations layout. Learn more.

40.92945, -100.16068

Hourly Observations for April 20, 2017

Temp ( °F °C ) Dew Point ( °F °C ) Humidity (%) Winds ( mph kmh ) Pressure ( in mb ) Visibility ( mi km ) Precip ( " mm )
12:15 am 00:15 Clear 53 11.8 43 6.1 68 68 N 14 22 30.03 1017 10 16.0934 0 0
12:35 am 00:35 Clear 53 11.5 43 6.2 70 70 N 14 22 30.03 1017 10 16.0934 0 0
12:55 am 00:55 Clear 52 11.3 42 5.8 69 69 NNW 14 22 30.03 1017 10 16.0934 0 0
1:15 am 01:15 Clear 52 11.1 40 4.7 65 65 N 10 17 30.03 1017 10 16.0934 0 0
1:35 am 01:35 Clear 52 11 40 4.3 64 64 N 10 17 30.06 1018 10 16.0934 0 0
1:55 am 01:55 Clear 51 10.8 39 4.1 64 64 WNW 5 7 30.12 1020 10 16.0934 0 0
2:15 am 02:15 Clear 51 10.5 40 4.2 65 65 NNW 7 11 30.12 1020 10 16.0934 0 0
2:35 am 02:35 Clear 50 10.2 39 4.1 66 66 NW 6 9 30.12 1020 10 16.0934 0 0
2:55 am 02:55 Clear 49 9.5 40 4.2 70 70 WNW 6 9 30.15 1021 10 16.0934 0 0
3:15 am 03:15 Clear 48 9.1 40 4.2 72 72 WNW 8 13 30.12 1020 10 16.0934 0 0
3:35 am 03:35 Clear 47 8.3 39 4 75 75 W 8 13 30.12 1020 10 16.0934 0 0
3:55 am 03:55 Clear 45 7 39 3.7 80 80 W 8 13 30.15 1021 10 16.0934 0 0
4:15 am 04:15 Clear 43 6 38 3.1 82 82 WNW 6 9 30.15 1021 10 16.0934 0 0
4:35 am 04:35 Clear 41 5.1 36 2.3 82 82 WNW 7 11 30.15 1021 10 16.0934 0 0
4:55 am 04:55 Clear 41 4.8 36 2.1 83 83 WNW 5 7 30.15 1021 10 16.0934 0 0
5:15 am 05:15 Clear 40 4.4 35 1.9 84 84 NW 9 15 30.21 1023 10 16.0934 0 0
5:35 am 05:35 Clear 39 3.7 35 1.7 87 87 NW 8 13 30.21 1023 10 16.0934 0 0
5:55 am 05:55 Clear 38 3.1 34 1.3 88 88 NW 7 11 30.21 1023 10 16.0934 0 0
6:15 am 06:15 Clear 38 3.1 35 1.4 89 89 NW 8 13 30.21 1023 10 16.0934 0 0
6:35 am 06:35 Clear 38 3.3 35 1.4 88 88 NW 6 9 30.21 1023 10 16.0934 0 0
6:55 am 06:55 Sunny 37 2.9 34 1.1 88 88 WNW 6 9 30.21 1023 10 16.0934 0 0
7:15 am 07:15 Sunny 37 2.6 33 0.7 87 87 N 5 7 30.21 1023 10 16.0934 0 0
7:35 am 07:35 Sunny 38 3.5 35 1.6 88 88 N 5 7 30.21 1023 10 16.0934 0 0
7:55 am 07:55 Sunny 41 5 37 2.5 84 84 NNW 6 9 30.18 1022 10 16.0934 0 0
8:15 am 08:15 Sunny 44 6.6 38 3.4 80 80 NNW 10 17 30.18 1022 10 16.0934 0 0
8:35 am 08:35 Sunny 46 7.9 38 3.4 73 73 NNW 13 20 30.18 1022 10 16.0934 0 0
8:55 am 08:55 Sunny 48 9 38 3.4 68 68 NNW 14 22 30.15 1021 10 16.0934 0 0
9:15 am 09:15 Sunny 50 9.9 38 3.5 65 65 NNW 14 22 30.15 1021 10 16.0934 0 0
9:35 am 09:35 Sunny 51 10.5 39 3.8 64 64 NW 13 20 30.15 1021 10 16.0934 0 0
9:55 am 09:55 Sunny 53 11.8 39 4.1 60 60 NW 15 24 30.12 1020 10 16.0934 0 0
10:15 am 10:15 Sunny 55 13 38 3.4 52 52 NNW 15 24 30.12 1020 10 16.0934 0 0
10:35 am 10:35 Sunny 58 14.2 37 2.8 46 46 NNW 21 33 30.12 1020 10 16.0934 0 0
10:55 am 10:55 Sunny 59 14.8 36 2.2 43 43 NNW 21 33 30.09 1019 10 16.0934 0 0
11:15 am 11:15 Sunny 60 15.7 35 1.9 40 40 NW 21 33 30.09 1019 10 16.0934 0 0
11:35 am 11:35 Sunny 62 16.4 36 2 38 38 NW 15 24 30.09 1019 10 16.0934 0 0
11:55 am 11:55 Sunny 63 17 33 0.8 34 34 NNW 18 30 30.09 1019 10 16.0934 0 0
12:15 pm 12:15 Sunny 63 17.2 33 0.6 33 33 NW 17 28 30.09 1019 10 16.0934 0 0
12:35 pm 12:35 Sunny 64 17.5 33 0.6 32 32 N 14 22 30.09 1019 10 16.0934 0 0
12:55 pm 12:55 Sunny 64 17.9 33 0.5 31 31 NW 7 11 30.06 1018 10 16.0934 0 0
1:15 pm 13:15 Sunny 65 18.5 32 -0.2 28 28 NW 9 15 30.06 1018 10 16.0934 0 0
1:35 pm 13:35 Sunny 66 18.9 29 -1.6 25 25 NW 10 17 30.03 1017 10 16.0934 0 0
1:55 pm 13:55 Sunny 66 18.9 29 -1.7 25 25 N 9 15 30.03 1017 10 16.0934 0 0
2:35 pm 14:35 Sunny 68 20.1 29 -1.4 24 24 WNW 10 17 30.03 1017 10 16.0934 0 0
2:55 pm 14:55 Sunny 69 20.5 29 -1.9 22 22 NW 13 20 29.97 1015 10 16.0934 0 0
3:15 pm 15:15 Sunny 69 20.3 28 -2.2 22 22 NW 12 19 30 1016 10 16.0934 0 0
3:35 pm 15:35 Sunny 69 20.6 28 -2.5 21 21 WNW 3 6 29.97 1015 10 16.0934 0 0
3:55 pm 15:55 Sunny 70 21.2 27 -2.8 20 20 W 7 11 29.97 1015 10 16.0934 0 0
4:15 pm 16:15 Sunny 69 20.3 28 -2 22 22 NNE 5 7 29.94 1014 10 16.0934 0 0
4:35 pm 16:35 Sunny 70 20.9 28 -2.4 21 21 N 12 19 29.94 1014 10 16.0934 0 0
4:55 pm 16:55 Sunny 70 21 27 -2.8 20 20 N 7 11 29.94 1014 10 16.0934 0 0
5:15 pm 17:15 Sunny 70 21 28 -2.4 21 21 NNW 7 11 29.94 1014 10 16.0934 0 0
5:35 pm 17:35 Sunny 70 21 26 -3.2 19 19 NNE 8 13 29.94 1014 10 16.0934 0 0
5:55 pm 17:55 Sunny 69 20.4 26 -3.4 20 20 N 14 22 29.94 1014 10 16.0934 0 0
6:15 pm 18:15 Sunny 69 20.4 25 -3.8 19 19 N 10 17 29.94 1014 10 16.0934 0 0
6:35 pm 18:35 Sunny 68 19.8 24 -4.3 19 19 NNE 12 19 29.97 1015 10 16.0934 0 0
6:55 pm 18:55 Sunny 67 19.5 26 -3.4 21 21 NNE 13 20 29.97 1015 10 16.0934 0 0
7:15 pm 19:15 Sunny 65 18.6 28 -2.4 24 24 NNE 9 15 29.97 1015 10 16.0934 0 0
7:35 pm 19:35 Sunny 63 17.1 30 -0.9 30 30 ENE 9 15 29.97 1015 10 16.0934 0 0
7:55 pm 19:55 Sunny 61 16 30 -1.1 31 31 NE 10 17 30 1016 10 16.0934 0 0
8:15 pm 20:15 Sunny 59 15 30 -1.1 33 33 ENE 8 13 30 1016 10 16.0934 0 0
8:35 pm 20:35 Clear 58 14.3 32 -0.1 38 38 NE 8 13 30 1016 7 11.26538 0 0
8:55 pm 20:55 Clear 58 14.4 32 0.1 38 38 NE 10 17 30 1016 10 16.0934 0 0
9:15 pm 21:15 Clear 57 14.1 33 0.6 40 40 NE 10 17 30.03 1017 10 16.0934 0 0
9:35 pm 21:35 Clear 57 13.9 35 1.7 44 44 ENE 9 15 30.03 1017 10 16.0934 0 0
9:55 pm 21:55 Partly Cloudy 56 13.5 36 2.4 47 47 ENE 10 17 30.09 1019 10 16.0934 0 0
10:15 pm 22:15 Partly Cloudy 55 12.8 37 2.9 51 51 ENE 9 15 30.09 1019 10 16.0934 0 0
10:35 pm 22:35 Partly Cloudy 54 12.4 38 3.2 54 54 E 9 15 30.09 1019 10 16.0934 0 0
10:55 pm 22:55 Clear 53 11.7 38 3.6 58 58 E 9 15 30.09 1019 10 16.0934 0 0
11:15 pm 23:15 Partly Cloudy 53 11.8 39 3.8 58 58 E 9 15 30.09 1019 10 16.0934 0 0
11:35 pm 23:35 Mostly Cloudy 54 12.1 39 4 58 58 E 8 13 30.09 1019 10 16.0934 0 0
11:55 pm 23:55 Mostly Cloudy 54 12 39 4 58 58 E 9 15 30.12 1020 10 16.0934 0 0

Powered by AerisWeather